Flag for U.S.A. Weather past 2 weeks in Abilene, Texas, U.S.A.

Now
75 °F

Clear.


Feels Like: 77 °F
Forecast: 72 / 92 °F
Wind: 6 mph from South

Location: Abilene Regional Airport

Current Time: Jul 4, 2015 at 2:10:53 AM

Latest Report: Jul 4, 2015 at 12:52 AM


Visibility: 10 mi

Pressure: 29.91 "Hg (28.16 "Hg at 524m altitude)

Humidity: 69%

Dew point: 64 °F

Location of AbileneLocation

Historic Weather in Abilene — Graph

°F

Abilene temperature yesterday

Maximum temperature yesterday: 91 °F (at 5:52 PM)
Minimum temperature yesterday: 74 °F (at 5:52 AM)
Average temperature yesterday: 82 °F

Past Weeks' High & Low Weather Summary

 TemperatureHumidityPressure
High95 °F (Jun 29, 3:52 PM)97% (Jun 24, 6:52 AM)30.21 "Hg (Jun 24, 6:52 AM)
Low65 °F (Jun 28, 6:52 AM)28% (Jun 28, 4:52 PM)29.83 "Hg (Jul 2, 7:52 PM)
Average81 °F63%29.97 "Hg
* Reported Jun 19 12:52 AM — Jul 4 12:52 AM, Abilene, Weather by CustomWeather, © 2015

Note: Actual official high and low records may vary slightly from our data, if they occured in-between our weather recording intervals... More about our weather records

Advertising

Abilene weather history for previous 24 hours

 ConditionsComfort  
Time TempWeatherWind HumidityBarometerVisibility
12:52 AM
Sat, Jul 4
75 °FClear.6 mph69%29.91 "Hg10 mi
11:52 PM
Fri, Jul 3
77 °FClear.8 mph64%29.91 "Hg10 mi
10:52 PM78 °FClear.8 mph62%29.89 "Hg10 mi
9:52 PM80 °FClear.9 mph58%29.87 "Hg10 mi
8:52 PM84 °FSunny.9 mph51%29.86 "Hg10 mi
7:52 PM87 °FSunny.16 mph46%29.85 "Hg10 mi
6:52 PM90 °FPassing clouds.14 mph41%29.84 "Hg10 mi
5:52 PM91 °FPassing clouds.10 mph39%29.85 "Hg10 mi
4:52 PM90 °FScattered clouds.7 mph39%29.87 "Hg10 mi
3:52 PM89 °FPartly sunny.9 mph42%29.88 "Hg10 mi
2:52 PM89 °FSunny.13 mph42%29.90 "Hg10 mi
1:52 PM89 °FSunny.12 mph43%29.93 "Hg10 mi
12:52 PM87 °FSunny.17 mph48%29.94 "Hg10 mi
11:52 AM86 °FSunny.17 mph49%29.96 "Hg10 mi
10:52 AM83 °FPartly sunny.14 mph57%29.95 "Hg10 mi
9:52 AM82 °FSunny.16 mph58%29.95 "Hg10 mi
8:52 AM77 °FPassing clouds.13 mph74%29.95 "Hg10 mi
7:52 AM74 °FSunny.6 mph79%29.94 "Hg10 mi
6:52 AM74 °FClear.9 mph79%29.93 "Hg10 mi
5:52 AM74 °FClear.10 mph76%29.91 "Hg10 mi
4:52 AM75 °FClear.13 mph74%29.89 "Hg10 mi
3:52 AM76 °FClear.12 mph74%29.89 "Hg10 mi
2:52 AM77 °FClear.9 mph71%29.90 "Hg10 mi
Weather by CustomWeather, © 2015

See weather overviewHow to use our weather pages